Regional Weather Roundup
Issued by NWS

Home | Current Version | Previous Version | Graphics & Text | Print | Product List | Glossary On
Versions: 1 2 3 4 5 6 7 8 9 10 11 12 13 14 15 16 17 18 19 20 21 22 23 24 25 26 27 28 29 30 31 32 33 34 35 36 37 38 39 40 41 42 43 44 45 46 47 48 49 50
000
ASUS43 KLSX 070807
RWRMO

WEATHER SUMMARY FOR MISSOURI
NATIONAL WEATHER SERVICE SPRINGFIELD MO
300 AM CDT TUE JUL 07 2015

NOTE: "FAIR" INDICATES FEW OR NO CLOUDS BELOW 12,000 FEET WITH NO
       SIGNIFICANT WEATHER AND/OR OBSTRUCTIONS TO VISIBILITY.
       CURRENT SKY AND/OR WEATHER CONDITIONS ARE NOT AVAILABLE FOR
       CHILLICOTHE AND FARMINGTON.

MOZ001>031-035>038-043-044-053-054-070900-
...NORTHERN AND WESTERN MISSOURI...

CITY           SKY/WX    TMP DP  RH WIND       PRES   REMARKS
KANSAS CTY INT HVY RAIN  61  60  97 NE21G30   30.00R FOG
KANSAS C DTWN  HVY RAIN  65  64  97 N10       29.98R FOG
LEE`S SUMMIT   RAIN      65  64  97 N22       29.97R FOG
ST JOSEPH      CLOUDY    66  64  93 MISG      30.01R FOG
CHILLICOTHE      N/A     64  61  90 N8        29.99R
KIRKSVILLE     CLOUDY    65  60  84 N10       29.96R HAZE

$$
MOZ066>068-077>081-088>096-101>105-070900-
...SOUTHWEST MISSOURI...

CITY           SKY/WX    TMP DP  RH WIND       PRES   REMARKS
SPRINGFIELD    CLOUDY    74  72  93 N5        29.95S
JOPLIN         LGT RAIN  72  71  97 SE5       29.94S

$$
MOZ032>034-039>042-045>050-055>058-069>072-070900-
...CENTRAL MISSOURI...

CITY           SKY/WX    TMP DP  RH WIND       PRES   REMARKS
COLUMBIA       HVY RAIN  72  71  97 SW3       29.92S FOG
JEFFERSON CITY CLOUDY    73  71  93 S6        29.91S
ROLLA          RAIN      70  69  97 W10       29.94S FOG
SEDALIA        LGT RAIN  73  70  90 W7        29.94S
WHITEMAN AFB   MOCLDY    71  71  99 W7        29.93F
WARRENSBURG    DRIZZLE   70  70 100 W3        29.94R
OSAGE BEACH    CLOUDY    72  68  88 SW3       29.95R

$$
MOZ051-052-059>065-070900-
...EAST CENTRAL MISSOURI...

CITY           SKY/WX    TMP DP  RH WIND       PRES   REMARKS
ST LOUIS INTL  CLOUDY    81  72  74 SW14      29.88F
SPIRIT OF STL  CLOUDY    80  73  79 SW10G17   29.87S
ST CHARLES     CLOUDY    79  73  82 SW8       29.86S

$$
MOZ072>076-082>087-097>100-106>115-070900-
...SOUTH CENTRAL AND SOUTHEAST MISSOURI...

CITY           SKY/WX    TMP DP  RH WIND       PRES   REMARKS
CAPE GIRARDEAU CLOUDY    75  71  87 SW10      29.95F
FARMINGTON     CLOUDY    75  72  88 S12G18    29.98S
POPLAR BLUFF   CLOUDY    76  73  91 S5        29.95F
WEST PLAINS    CLOUDY    77  71  82 SW8       29.98S

$$



USA.gov is the U.S. government's official web portal to all federal, state and local government web resources and services.